Location: Cz?stochówka
(50.8142°N, 19.0915°E)
Time: 09:57:27
(UTC+00:00)

Cosmos 1833 Rocket - Pass Details

Date: 13 January 2026
Orbit: 832 x 838 km, 71.0° (Epoch: 18 February)

Event Time Altitude Azimuth Distance (km) Brightness Sun altitude
Exits shadow 05:40:51 11° 287° (WNW) 2,363 4.4 -9.2°
Maximum altitude 05:42:56 14° 264° (W) 2,200 4.4 -8.9°
Drops below altitude 10° 05:45:35 10° 235° (SW) 2,445 4.8 -8.5°
Sets 05:49:17 0° 211° (SSW) 3,371 5.8 -8.0°
